When you browse on this site, cookies collect data to enhance your experience and personalize the content and advertising you see.
Visit our Privacy Policy to learn more. By continuing to use the site, you agree to this use of cookies and data.
  • In Switzerland
  • List of Countries
  • For 7 days
  • Water Temperature
  • Satellite Maps
  • Weather Map
  • Weather Widgets
  • user-avatar
    Login

    Hourly Weather Plav'ya

    Today, 26 April, Friday

    Time Temperature Precipitation Wind Pressure Humidity
    00:00 +12°C° 0.1 mm 4 mps 703 mmHg 100%
    01:00 +12°C° 0 mm 3 mps 702 mmHg 100%
    02:00 +12°C° 0 mm 2 mps 701 mmHg 99%
    03:00 +12°C° 0 mm 2 mps 701 mmHg 96%
    04:00 +12°C° 0 mm 2 mps 701 mmHg 98%
    05:00 +12°C° 0 mm 2 mps 701 mmHg 98%
    06:00 +11°C° 0 mm 3 mps 701 mmHg 99%
    07:00 +11°C° 0 mm 3 mps 701 mmHg 98%
    08:00 +13°C° 0 mm 4 mps 702 mmHg 97%
    09:00 +15°C° 0 mm 5 mps 702 mmHg 96%
    10:00 +16°C° 0 mm 5 mps 702 mmHg 95%
    11:00 +17°C° 0 mm 6 mps 702 mmHg 95%
    12:00 +17°C° 0 mm 6 mps 702 mmHg 95%
    13:00 +17°C° 0 mm 6 mps 702 mmHg 95%
    14:00 +19°C° 0 mm 6 mps 702 mmHg 94%
    15:00 +19°C° 0 mm 6 mps 702 mmHg 92%
    16:00 +19°C° 0 mm 6 mps 701 mmHg 92%
    17:00 +19°C° 0 mm 5 mps 701 mmHg 94%
    18:00 +17°C° 0 mm 5 mps 701 mmHg 95%
    19:00 +18°C° 0 mm 4 mps 700 mmHg 99%
    20:00 +17°C° 0 mm 4 mps 700 mmHg 100%
    21:00 +15°C° 0 mm 5 mps 700 mmHg 100%
    22:00 +14°C° 0 mm 4 mps 700 mmHg 100%
    23:00 +14°C° 0 mm 4 mps 700 mmHg 100%

    Tomorrow, 27 April, Saturday

    Time Temperature Precipitation Wind Pressure Humidity
    00:00 +14°C° 0 mm 4 mps 700 mmHg 100%
    01:00 +13°C° 0 mm 4 mps 700 mmHg 100%
    02:00 +13°C° 0 mm 3 mps 700 mmHg 100%
    03:00 +13°C° 0 mm 3 mps 699 mmHg 100%
    04:00 +13°C° 0 mm 4 mps 699 mmHg 100%
    05:00 +13°C° 0 mm 4 mps 699 mmHg 100%
    06:00 +13°C° 0 mm 3 mps 698 mmHg 100%
    07:00 +13°C° 0 mm 4 mps 698 mmHg 100%
    08:00 +14°C° 0 mm 4 mps 698 mmHg 100%
    09:00 +15°C° 0 mm 5 mps 698 mmHg 100%
    10:00 +16°C° 0 mm 5 mps 698 mmHg 100%
    11:00 +17°C° 0 mm 4 mps 698 mmHg 100%
    12:00 +18°C° 0 mm 4 mps 698 mmHg 100%
    13:00 +19°C° 0 mm 5 mps 698 mmHg 98%
    14:00 +19°C° 0 mm 5 mps 697 mmHg 96%
    15:00 +19°C° 0 mm 5 mps 696 mmHg 96%
    16:00 +13°C° 2.2 mm 9 mps 696 mmHg 98%
    17:00 +17°C° 0.1 mm 3 mps 696 mmHg 92%
    18:00 +17°C° 0 mm 2 mps 696 mmHg 89%
    19:00 +16°C° 0 mm 1 mps 696 mmHg 97%
    20:00 +15°C° 0 mm 0 mps 696 mmHg 97%
    21:00 +14°C° 0 mm 2 mps 695 mmHg 100%
    22:00 +14°C° 0 mm 1 mps 695 mmHg 100%
    23:00 +13°C° 0 mm 1 mps 695 mmHg 100%

    Day after tomorrow, 28 April, Sunday

    Time Temperature Precipitation Wind Pressure Humidity
    00:00 +13°C° 0 mm 2 mps 695 mmHg 100%
    01:00 +11°C° 0 mm 3 mps 695 mmHg 100%
    02:00 +11°C° 0 mm 4 mps 695 mmHg 100%
    03:00 +10°C° 0.3 mm 4 mps 694 mmHg 100%
    04:00 +9°C° 3 mm 5 mps 694 mmHg 100%
    05:00 +9°C° 1.5 mm 2 mps 694 mmHg 100%
    06:00 +9°C° 4.4 mm 3 mps 694 mmHg 100%
    07:00 +9°C° 2.6 mm 2 mps 695 mmHg 100%
    08:00 +9°C° 1 mm 3 mps 695 mmHg 100%
    09:00 +8°C° 0.1 mm 5 mps 695 mmHg 100%
    10:00 +7°C° 1.9 mm 4 mps 695 mmHg 100%
    11:00 +8°C° 1.6 mm 4 mps 695 mmHg 100%
    12:00 +8°C° 0.2 mm 5 mps 695 mmHg 100%
    13:00 +9°C° 0 mm 5 mps 695 mmHg 100%
    14:00 +8°C° 0 mm 6 mps 695 mmHg 100%
    15:00 +8°C° 0 mm 6 mps 695 mmHg 100%
    16:00 +8°C° 0 mm 5 mps 695 mmHg 100%
    17:00 +7°C° 0.2 mm 5 mps 695 mmHg 100%
    18:00 +8°C° 0.2 mm 5 mps 695 mmHg 100%
    19:00 +7°C° 0 mm 4 mps 695 mmHg 100%
    20:00 +7°C° 0 mm 4 mps 695 mmHg 100%
    21:00 +7°C° 0 mm 4 mps 695 mmHg 100%
    22:00 +8°C° 0.2 mm 3 mps 695 mmHg 100%
    23:00 +8°C° 0.2 mm 3 mps 694 mmHg 100%

    29 April, Monday

    Time Temperature Precipitation Wind Pressure Humidity
    00:00 +8°C° 0.3 mm 2 mps 694 mmHg 100%
    01:00 +8°C° 1.6 mm 2 mps 694 mmHg 100%
    02:00 +8°C° 0.5 mm 2 mps 694 mmHg 100%
    03:00 +8°C° 0 mm 2 mps 694 mmHg 100%
    04:00 +8°C° 0 mm 2 mps 693 mmHg 100%
    05:00 +9°C° 0 mm 1 mps 693 mmHg 100%
    06:00 +9°C° 0 mm 1 mps 693 mmHg 100%
    07:00 +9°C° 0 mm 1 mps 693 mmHg 100%
    08:00 +9°C° 0 mm 1 mps 693 mmHg 100%
    09:00 +9°C° 0 mm 1 mps 693 mmHg 100%
    10:00 +9°C° 0 mm 1 mps 694 mmHg 100%
    11:00 +9°C° 0 mm 1 mps 694 mmHg 100%
    12:00 +10°C° 0 mm 1 mps 694 mmHg 100%
    13:00 +10°C° 0 mm 1 mps 694 mmHg 100%
    14:00 +11°C° 0 mm 1 mps 694 mmHg 100%
    15:00 +13°C° 0 mm 1 mps 694 mmHg 100%
    16:00 +12°C° 0 mm 3 mps 694 mmHg 100%
    17:00 +11°C° 0 mm 3 mps 694 mmHg 100%
    18:00 +11°C° 0 mm 3 mps 694 mmHg 100%
    19:00 +11°C° 0 mm 3 mps 694 mmHg 100%
    20:00 +10°C° 0 mm 3 mps 694 mmHg 100%
    21:00 +10°C° 0 mm 3 mps 694 mmHg 100%
    22:00 +9°C° 0 mm 2 mps 694 mmHg 100%
    23:00 +10°C° 0 mm 1 mps 693 mmHg 100%

    30 April, Tuesday

    Time Temperature Precipitation Wind Pressure Humidity
    00:00 +9°C° 0.1 mm 3 mps 694 mmHg 100%
    01:00 +10°C° 1 mm 1 mps 693 mmHg 100%
    02:00 +10°C° 0.1 mm 1 mps 693 mmHg 100%

    1 May, Wednesday

    Time Temperature Precipitation Wind Pressure Humidity
    Show more